Cordele, GA

12:04 AM EST on February 07, 2016 (GMT -0500)
Crisp County-Cordele

Weather History for KCKF - March, 2014

Change the Weather History Date:

Monday, March 24, 2014

  Actual Average (KABY) Record (KABY)
Temperature  
Mean Temperature 60 °F 61 °F  
Max Temperature 69 °F 74 °F 88 °F (1935)
Min Temperature 51 °F 48 °F 28 °F (1968)
Degree Days  
Heating Degree Days 5 5  
Month to date heating degree days 177  
Since 1 July heating degree days 1737  
Cooling Degree Days 0 1  
Month to date cooling degree days 24  
Year to date cooling degree days 33  
Growing Degree Days 10 (Base 50)    
Moisture  
Dew Point 43 °F    
Average Humidity 53    
Maximum Humidity 78    
Minimum Humidity 36    
Precipitation  
Precipitation 0.00 in - 0.47 in (2013)
Sea Level Pressure  
Sea Level Pressure 30.10 in    
Wind  
Wind Speed 6 mph (East)    
Max Wind Speed 12 mph    
Max Gust Speed 18 mph    
Visibility 10 miles    
Events      
T = Trace of Precipitation, MM = Missing Value Source: NWS Daily Summary

Daily Weather History Graph

Daily Weather History Graph

Search for Another Location

Airport or City:

Trip Planner

Search our weather history database for the weather conditions in past years. The results will help you decide how hot, cold, wet, or windy it might be!

Date:

Astronomy

Mar. 24, 2014 Rise Set
Actual Time 7:33 AM EDT 7:49 PM EDT
Civil Twilight 7:09 AM EDT 8:13 PM EDT
Nautical Twilight 6:40 AM EDT 8:42 PM EDT
Astronomical Twilight 6:11 AM EDT 9:11 PM EDT
Moon 2:43 AM EDT (3/24) 1:32 PM EDT (3/24)
Length of Visible Light 13h 04m
Length of Day
12h 15m
Last Quarter, 43% of the Moon is Illuminated
Mar 24
Last Quarter
Mar 30
New
Apr 7
First Quarter
Apr 15
Full
Apr 22
Last Quarter

Hourly Weather History & Observations

Time (EDT) Temp. Dew Point Humidity Pressure Visibility Wind Dir Wind Speed Gust Speed Precip Events Conditions
12:15 AM 60.1 °F 44.4 °F 56% 30.12 in 10.0 mi North 4.6 mph - N/A   Clear
12:35 AM 59.9 °F 44.4 °F 57% 30.12 in 10.0 mi North 5.8 mph - N/A   Clear
12:55 AM 59.2 °F 44.1 °F 57% 30.13 in 10.0 mi NW 4.6 mph - N/A   Clear
1:15 AM 58.6 °F 44.2 °F 59% 30.13 in 10.0 mi NNW 3.5 mph - N/A   Clear
1:35 AM 58.3 °F 44.2 °F 60% 30.12 in 10.0 mi North 5.8 mph - N/A   Clear
1:55 AM 58.1 °F 44.2 °F 60% 30.11 in 10.0 mi North 5.8 mph - N/A   Clear
2:15 AM 58.1 °F 43.9 °F 59% 30.13 in 10.0 mi NNW 6.9 mph - N/A   Clear
2:35 AM 57.6 °F 43.7 °F 60% 30.13 in 10.0 mi NNW 4.6 mph - N/A   Clear
2:55 AM 57.6 °F 43.5 °F 59% 30.13 in 10.0 mi North 5.8 mph - N/A   Clear
3:15 AM 57.4 °F 43.7 °F 60% 30.13 in 10.0 mi North 5.8 mph - N/A   Mostly Cloudy
3:40 AM 57.2 °F 42.8 °F 59% 30.12 in 10.0 mi NNE 5.8 mph - N/A   Scattered Clouds
3:55 AM 57.0 °F 42.6 °F 59% 30.12 in 10.0 mi NNE 5.8 mph - N/A   Scattered Clouds
4:15 AM 56.8 °F 42.4 °F 59% 30.12 in 10.0 mi NNE 5.8 mph - N/A   Scattered Clouds
4:35 AM 57.2 °F 41.9 °F 57% 30.12 in 10.0 mi NNE 6.9 mph - N/A   Mostly Cloudy
4:55 AM 56.8 °F 41.9 °F 57% 30.12 in 10.0 mi NE 5.8 mph - N/A   Mostly Cloudy
5:15 AM 56.1 °F 42.4 °F 60% 30.12 in 10.0 mi NE 4.6 mph - N/A   Mostly Cloudy
5:35 AM 54.9 °F 42.8 °F 64% 30.12 in 10.0 mi NE 4.6 mph - N/A   Scattered Clouds
5:55 AM 54.1 °F 43.3 °F 67% 30.12 in 10.0 mi NE 4.6 mph - N/A   Clear
6:15 AM 53.2 °F 43.7 °F 70% 30.12 in 10.0 mi NE 3.5 mph - N/A   Scattered Clouds
6:35 AM 53.1 °F 44.1 °F 71% 30.13 in 10.0 mi Calm Calm - N/A   Scattered Clouds
6:55 AM 52.3 °F 44.2 °F 74% 30.13 in 10.0 mi NE 3.5 mph - N/A   Clear
7:15 AM 51.8 °F 45.0 °F 77% 30.13 in 10.0 mi NE 4.6 mph - N/A   Clear
7:35 AM 52.5 °F 45.1 °F 76% 30.14 in 10.0 mi NE 5.8 mph - N/A   Clear
7:55 AM 51.8 °F 45.1 °F 78% 30.14 in 10.0 mi ENE 3.5 mph - N/A   Clear
8:15 AM 52.7 °F 45.9 °F 78% 30.15 in 10.0 mi ENE 5.8 mph - N/A   Clear
8:35 AM 53.6 °F 45.9 °F 75% 30.16 in 10.0 mi ENE 8.1 mph - N/A   Clear
8:55 AM 54.9 °F 45.5 °F 71% 30.17 in 10.0 mi ENE 6.9 mph - N/A   Clear
9:15 AM 56.3 °F 44.1 °F 64% 30.18 in 10.0 mi ENE 6.9 mph 16.1 mph N/A   Clear
9:35 AM 57.2 °F 43.0 °F 59% 30.19 in 10.0 mi East 9.2 mph - N/A   Clear
9:55 AM 57.6 °F 42.1 °F 56% 30.19 in 10.0 mi East 11.5 mph 16.1 mph N/A   Clear
10:15 AM 58.8 °F 40.8 °F 51% 30.19 in 10.0 mi East 11.5 mph 17.3 mph N/A   Clear
10:35 AM 59.9 °F 39.9 °F 48% 30.19 in 10.0 mi East 9.2 mph 18.4 mph N/A   Clear
10:55 AM 60.8 °F 39.2 °F 45% 30.20 in 10.0 mi ESE 11.5 mph - N/A   Clear
11:15 AM 61.3 °F 39.2 °F 44% 30.19 in 10.0 mi ENE 11.5 mph - N/A   Clear
11:35 AM 62.1 °F 38.8 °F 42% 30.19 in 10.0 mi ESE 11.5 mph - N/A   Clear
11:55 AM 62.8 °F 38.8 °F 41% 30.19 in 10.0 mi ESE 8.1 mph - N/A   Clear
12:15 PM 63.7 °F 39.4 °F 41% 30.17 in 10.0 mi East 9.2 mph - N/A   Clear
12:35 PM 64.6 °F 39.2 °F 39% 30.17 in 10.0 mi ESE 6.9 mph - N/A   Scattered Clouds
12:55 PM 64.0 °F 38.3 °F 39% 30.16 in 10.0 mi SE 9.2 mph - N/A   Scattered Clouds
1:15 PM 65.3 °F 39.0 °F 38% 30.15 in 10.0 mi East 9.2 mph - N/A   Mostly Cloudy
1:35 PM 65.5 °F 39.4 °F 38% 30.14 in 10.0 mi East 8.1 mph - N/A   Overcast
1:55 PM 65.5 °F 39.0 °F 38% 30.14 in 10.0 mi ESE 6.9 mph - N/A   Overcast
2:15 PM 67.5 °F 39.7 °F 36% 30.12 in 10.0 mi ESE 6.9 mph - N/A   Scattered Clouds
2:35 PM 66.7 °F 39.4 °F 37% 30.11 in 10.0 mi East 4.6 mph - N/A   Scattered Clouds
2:55 PM 67.5 °F 40.3 °F 37% 30.09 in 10.0 mi ESE 11.5 mph - N/A   Clear
3:15 PM 68.4 °F 40.3 °F 36% 30.08 in 10.0 mi SE 5.8 mph 16.1 mph N/A   Clear
3:35 PM 68.2 °F 40.6 °F 37% 30.07 in 10.0 mi East 9.2 mph - N/A   Clear
3:55 PM 68.9 °F 41.4 °F 37% 30.06 in 10.0 mi East 8.1 mph - N/A   Clear
4:15 PM 68.2 °F 40.6 °F 37% 30.05 in 10.0 mi ESE 5.8 mph - N/A   Clear
4:35 PM 68.5 °F 41.0 °F 37% 30.04 in 10.0 mi East 4.6 mph - N/A   Clear
4:55 PM 69.3 °F 41.4 °F 36% 30.04 in 10.0 mi ENE 8.1 mph - N/A   Clear
5:15 PM 68.9 °F 41.4 °F 37% 30.03 in 10.0 mi East 5.8 mph - N/A   Clear
5:35 PM 68.9 °F 41.4 °F 37% 30.02 in 10.0 mi East 9.2 mph - N/A   Scattered Clouds
5:55 PM 69.8 °F 41.9 °F 36% 30.02 in 10.0 mi ESE 8.1 mph - N/A   Scattered Clouds
6:15 PM 68.5 °F 41.9 °F 38% 30.01 in 10.0 mi SE 5.8 mph - N/A   Scattered Clouds
6:35 PM 68.4 °F 41.9 °F 38% 30.01 in 10.0 mi East 6.9 mph - N/A   Scattered Clouds
6:55 PM 67.8 °F 42.1 °F 39% 30.00 in 10.0 mi East 5.8 mph - N/A   Scattered Clouds
7:15 PM 66.4 °F 43.2 °F 43% 30.01 in 10.0 mi East 5.8 mph - N/A   Scattered Clouds
7:35 PM 65.5 °F 43.7 °F 45% 30.01 in 10.0 mi East 4.6 mph - N/A   Mostly Cloudy
7:55 PM 63.5 °F 44.6 °F 50% 30.00 in 10.0 mi ESE 4.6 mph - N/A   Scattered Clouds
8:15 PM 62.8 °F 44.8 °F 52% 30.00 in 10.0 mi ESE 3.5 mph - N/A   Mostly Cloudy
8:35 PM 61.2 °F 46.0 °F 58% 29.99 in 10.0 mi SE 4.6 mph - N/A   Scattered Clouds
8:55 PM 62.6 °F 44.8 °F 52% 30.00 in 10.0 mi SSE 3.5 mph - N/A   Scattered Clouds
9:15 PM 61.3 °F 45.5 °F 56% 30.00 in 10.0 mi SE 3.5 mph - N/A   Clear
9:35 PM 60.8 °F 45.3 °F 57% 30.00 in 10.0 mi SE 4.6 mph - N/A   Scattered Clouds
9:55 PM 60.8 °F 45.5 °F 57% 30.01 in 10.0 mi SE 3.5 mph - N/A   Scattered Clouds
10:15 PM 58.3 °F 46.6 °F 65% 30.01 in 10.0 mi SSE 3.5 mph - N/A   Clear
10:35 PM 59.9 °F 46.4 °F 61% 30.01 in 10.0 mi SSE 3.5 mph - N/A   Scattered Clouds
10:55 PM 59.9 °F 47.3 °F 63% 30.00 in 10.0 mi SSE 4.6 mph - N/A   Scattered Clouds
11:15 PM 59.9 °F 47.8 °F 64% 30.01 in 10.0 mi SSE 3.5 mph - N/A   Mostly Cloudy
11:35 PM 59.9 °F 48.4 °F 66% 30.00 in 10.0 mi SSE 4.6 mph - N/A   Overcast
11:55 PM 59.5 °F 48.6 °F 67% 30.00 in 10.0 mi SSE 4.6 mph - N/A   Overcast